Regional Weather Roundup
Issued by NWS Raleigh/Durham, NC

Home | Current Version | Previous Version | Text Only | Print | Product List | Glossary On
Versions: 1 2 3 4 5 6 7 8 9 10 11 12 13 14 15 16 17 18 19 20 21 22 23 24 25 26 27 28 29 30 31 32 33 34 35 36 37 38 39 40 41 42 43 44 45 46 47 48 49 50
000
ASUS42 KRAH 301510
RWRRAH
NORTH CAROLINA WEATHER ROUNDUP
NATIONAL WEATHER SERVICE RALEIGH NC
1100 AM EDT SAT AUG 30 2014

NOTE: "FAIR" INDICATES FEW OR NO CLOUDS BELOW 12,000 FEET WITH NO
SIGNIFICANT WEATHER AND/OR OBSTRUCTIONS TO VISIBILITY.

NCZ001-053-055-056-065-067-301600-
WESTERN NORTH CAROLINA

CITY           SKY/WX    TMP DP  RH WIND       PRES   REMARKS
ASHEVILLE      MOSUNNY   75  67  76 VRB3      30.27S
JEFFERSON      NOT AVBL
HICKORY        PTSUNNY   78  71  79 CALM      30.24R
RUTHERFORDTON  PTSUNNY   80  71  73 SE3       30.24S
MOUNT AIRY     PTSUNNY   80  74  82 E5        30.26F
BOONE          SUNNY     77  57  50 S6        30.32S
$$

NCZ021-022-025-041-071-084-088-301600-
CENTRAL NORTH CAROLINA

CITY           SKY/WX    TMP DP  RH WIND       PRES   REMARKS
CHARLOTTE      MOSUNNY   82  70  66 CALM      30.23R
GREENSBORO     MOSUNNY   82  71  69 CALM      30.22F
WINSTON-SALEM  MOSUNNY   81  69  67 CALM      30.24S
RALEIGH-DURHAM MOSUNNY   79  71  76 CALM      30.23F
FORT BRAGG     CLOUDY    80  74  79 CALM      30.22S
FAYETTEVILLE   CLOUDY    81  73  76 VRB3      30.22S
BURLINGTON     MOSUNNY   80  70  71 CALM      30.23S
LAURINBURG     MOSUNNY   83  73  72 E6        30.22S
$$

NCZ011-015-027-028-043-044-047-080-103-301600-
NORTHEASTERN NORTH CAROLINA

CITY           SKY/WX    TMP DP  RH WIND       PRES   REMARKS
ROCKY MT-WILSO SUNNY     81  71  71 CALM      30.23S
GREENVILLE     SUNNY     81  72  74 NW3       30.24R
WASHINGTON     MOSUNNY   80  72  76 CALM      30.23S
ELIZABETH CITY NOT AVBL
MANTEO         CLOUDY    80  73  80 E6        30.24S
CAPE HATTERAS  NOT AVBL
$$

NCZ078-087-090-091-093-098-101-301600-
SOUTHEASTERN NORTH CAROLINA

CITY           SKY/WX    TMP DP  RH WIND       PRES   REMARKS
LUMBERTON      MOSUNNY   85  74  69 VRB7      30.21R
GOLDSBORO      SUNNY     84  75  75 VRB3      30.20F
KINSTON        SUNNY     81  72  74 CALM      30.23S
KENANSVILLE    PTSUNNY   83  72  69 CALM      30.23S
NEW BERN       PTSUNNY   84  72  67 CALM      30.23S
CHERRY POINT   CLOUDY    84  72  67 VRB3      30.23S
BEAUFORT       CLOUDY    83  73  72 S6        30.22S
JACKSONVILLE   SUNNY     84  74  71 E6        30.21F
WILMINGTON     PTSUNNY   85  76  74 E9        30.21R
$$



USA.gov is the U.S. government's official web portal to all federal, state and local government web resources and services.